{"data":{"norad_id":64030,"epoch":"2026-05-25T02:20:50.352000Z","epoch_age_seconds":62494,"freshness":"FRESH","line1":"1 64030U 25102J   26145.09780500  .00002306  00000+0  20097-3 0  9991","line2":"2 64030  70.0011 281.9511 0003102 265.7479  94.3326 14.98335150 57409","mean_motion":14.9833515,"eccentricity":0.0003102,"inclination_deg":70.0011,"raan_deg":281.9511,"arg_perigee_deg":265.7479,"mean_anomaly_deg":94.3326,"bstar":0.00020097,"rev_number":5740,"period_min":96.106668791692,"perigee_km":569.8840201453,"apogee_km":574.19590993441,"semimajor_km":6950.1769650399,"source":"CELESTRAK","updated_at":"2026-05-25T13:38:20.225779Z"}}